Regional Weather Roundup
Issued by NWS Portland, ME

Current Version | Previous Version | Text Only | Print | Product List | Glossary Off
Versions: 1 2 3 4 5 6 7 8 9 10 11 12 13 14 15 16 17 18 19 20 21 22 23 24 25 26 27 28 29 30 31 32 33 34 35 36 37 38 39 40 41 42 43 44 45 46 47 48 49 50
328 ASUS41 KGYX 210910 RWRGYX WEATHER ROUNDUP FOR MAINE AND NEW HAMPSHIRE NATIONAL WEATHER SERVICE GRAY ME 500 AM EDT TUE AUG 21 2018 MEZ002-005-006-010-012-015-018-020-021-024-026-027-029-211000- MAINE CITY SKY/WX TMP DP RH WIND PRES REMARKS PORTLAND FAIR 56 55 97 CALM 30.15F SANFORD FAIR 48 47 96 CALM 30.15F BAR HARBOR FAIR 52 52 100 N3 30.17S WISCASSET FAIR 50 49 96 CALM 30.17S ROCKLAND FAIR 50 50 100 CALM 30.16S FRYEBURG FOG 53 53 100 CALM 30.16F VSB 1/2 LEWISTONAUBURN FOG 53 53 100 CALM 30.16S VSB 1/4 AUGUSTA FAIR 55 54 96 CALM 30.16S WATERVILLE FAIR 54 54 100 CALM 30.14S FOG BANGOR FAIR 54 53 97 CALM 30.16F GREENVILLE N/A 55 54 96 CALM 30.14F MILLINOCKET FOG 53 52 96 CALM 30.17S VSB 1/4 HOULTON MOCLDY 47 46 97 CALM 30.15S PRESQUE ISLE FAIR 47 47 100 CALM 30.16S FRENCHVILLE FAIR 57 52 83 SE6 30.15S CARIBOU FAIR 53 51 93 E3 30.15S $$ NHZ002-005-008-009-011-012-014-211000- NEW HAMPSHIRE CITY SKY/WX TMP DP RH WIND PRES REMARKS PORTSMOUTH CLOUDY 60 58 93 CALM 30.14S ROCHESTER FAIR 53 53 100 NW5 30.14F NASHUA FOG 59 59 100 NW3 30.16 VSB 3/4 MANCHESTER FOG 60 59 96 CALM 30.13F VSB 1 CONCORD FOG 55 54 96 E3 30.15F VSB<1/4 LACONIA FAIR 54 53 97 CALM 30.15F PLYMOUTH FOG 56 55 95 CALM 30.15F VSB<1/4 BERLIN FOG 52 52 100 CALM 30.17F VSB 1/4 WHITEFIELD FOG 50 50 100 CALM 30.16S VSB 1/2 JAFFREY FOG 54 54 100 CALM 30.17F VSB 1/4 KEENE MOCLDY N/A N/A N/A CALM 30.15 FOG LEBANON FOG 56 53 90 S3 30.14F VSB 1/4 MT WASHINGTON PTCLDY 50 28 43 SE8 N/A $$ VTZ005-007-008-211000- VERMONT CITY SKY/WX TMP DP RH WIND PRES REMARKS ST JOHNSBURY N/A 55 54 96 MISG 30.14F MONTPELIER FAIR 52 52 100 CALM 30.19R BURLINGTON FAIR 62 56 80 SE3 30.11R $$ MAZ007-012-024-CTZ003-RIZ002-NYZ038-NYZ072-211000- SOUTHERN NEW ENGLAND AND NY CITY SKY/WX TMP DP RH WIND PRES REMARKS BOSTON MOCLDY 66 62 87 N8 30.13F WORCESTER FOG 58 58 100 N5 30.15F VSB 1/2 NANTUCKET CLOUDY 65 65 100 NE13 30.08S FOG PROVIDENCE CLOUDY 65 61 87 N7 30.13S HARTFORD FAIR 59 57 93 CALM 30.13S ALBANY CLOUDY 68 58 70 SE6 30.12S NEW YORK CITY FAIR 69 61 75 E3 30.11R $$ ANZ081-ANZ082-ANZ150-NHZ014-MEZ023>029-211000- COASTAL MARINE OBSERVATIONS STATION/POSITION TIME TEMP WIND PRES WAVE AIR SEA DIR/SP/G HT/PER (UTC) (F) (DEG/KT/KT) (MB) (FT/S) MOUNT DESERT ROC 0900 58 360/ 7/ 7 1021.1F MATINICUS ROCK 0800 60 360/ 7/ 7 1020.8F ISLE OF SHOALS 0800 63 20/ 7/ 8 1020.5F JEFFREYS LEDGE 0836 69 N/A 4/ 8 $$ .............KEY.............. WCI - WIND CHILL TC - TEMPERATURE IN CELSIUS VSB - VISIBILITY IN MILES HX - HEAT INDEX FAIR- INDICATES FEW OR NO CLOUDS BELOW 12,000 FT, WITH NO SIGNIFICANT WEATHER AND/OR OBSTRUCTIONS TO VISIBILITY.

USA.gov is the U.S. government's official web portal to all federal, state and local government web resources and services.